Wind_Speed
39 40 40 39 39 40 41 42 42 41 40 41 41 42 42 43 44 43 43 44 43 44 44 45 46 46 46 45 45 43 41 40 41 40 40 39 38 37 36 36 35 34 33 34 33 33 32 31 29 26 24 23 22 21 20 19 18 17 16 16 16 14 15 13 10 10 15 15 11 6 2 2 2 2 2 2 2 2 3 3 3 4 3 3 3
40 40 40 39 40 42 43 42 42 42 41 42 42 42 43 45 45 44 44 44 44 44 45 45 45 45 45 45 45 42 40 41 42 42 42 41 39 38 37 36 35 34 34 34 34 33 32 31 29 27 25 24 24 23 23 22 20 20 19 18 18 17 16 16 15 12 13 15 14 7 3 1 1 2 3 2 2 2 1 1 2 3 2 1 1
40 41 40 40 41 41 42 42 42 42 43 43 44 44 45 45 45 45 45 45 45 45 46 45 45 45 44 44 44 43 42 44 44 44 43 42 40 39 38 37 36 35 35 34 34 33 33 31 30 29 27 26 26 25 24 23 23 22 21 20 20 19 17 16 15 14 14 15 12 8 5 4 3 3 3 3 3 3 2 2 2 1 1 1 3
38 40 39 39 39 39 40 42 43 44 44 44 45 46 46 46 46 46 45 45 45 45 45 45 44 44 44 44 44 44 45 46 46 45 44 43 42 40 39 38 37 36 35 34 35 34 34 33 32 31 30 29 28 27 26 25 24 23 23 22 21 20 18 16 14 12 13 13 9 6 6 5 5 5 5 4 4 4 4 3 1 2 3 6 10
37 39 38 37 38 39 39 41 43 45 46 45 46 46 46 46 47 47 46 46 46 45 44 43 44 45 46 46 46 46 47 47 47 46 45 44 43 41 40 39 37 36 35 35 35 34 34 34 35 34 33 32 31 31 29 28 26 25 24 23 21 20 18 16 14 10 9 7 6 6 7 7 8 7 6 6 5 4 3 1 1 4 8 11 15
36 37 37 37 38 39 40 41 43 45 46 46 46 47 46 47 47 47 47 47 46 46 45 44 44 46 46 46 46 47 47 47 47 46 46 45 43 42 40 39 38 37 35 34 34 34 35 35 35 36 36 36 35 34 31 30 28 26 25 24 23 21 20 18 15 11 8 7 8 9 9 9 9 8 7 7 6 4 2 1 1 5 10 14 17
34 36 37 38 38 39 41 43 44 44 45 45 45 46 46 47 48 48 48 48 47 46 46 45 44 45 45 45 46 47 47 47 46 46 46 45 44 43 41 39 38 36 34 34 34 34 34 35 36 38 38 37 36 35 33 31 30 28 27 26 25 24 22 19 15 12 11 11 12 13 12 11 10 9 7 6 5 3 2 4 5 8 13 16 18
34 35 36 36 37 40 42 43 43 43 42 41 42 43 44 46 47 48 48 48 48 47 46 45 44 44 45 45 45 46 46 46 46 46 46 46 44 43 42 40 39 36 35 34 35 34 35 35 37 38 37 35 34 33 32 32 31 29 28 27 26 25 22 19 16 14 14 14 15 15 13 12 11 10 8 6 5 4 2 5 8 11 14 16 17
35 35 35 36 38 39 40 40 40 40 39 38 39 41 43 44 45 45 46 46 46 46 45 44 44 43 44 44 45 45 46 47 47 48 47 46 44 43 42 41 40 39 37 36 36 36 36 36 36 36 35 33 31 30 29 30 30 29 29 29 28 25 22 19 18 17 17 16 17 15 13 13 13 11 9 8 5 3 2 5 8 10 11 13 14
33 34 35 37 38 38 38 38 38 38 38 38 39 41 42 42 42 42 43 44 43 44 45 44 44 44 43 43 44 44 45 47 48 48 47 47 45 43 42 42 42 42 41 39 38 37 36 35 35 34 33 30 29 28 28 28 27 25 26 27 27 25 23 22 20 20 19 19 19 17 15 15 14 11 9 7 5 2 2 4 6 8 9 11 12
31 33 35 36 36 36 37 37 37 38 38 38 40 41 41 41 42 42 42 42 42 43 44 44 44 44 44 43 44 44 45 46 47 47 47 46 46 45 44 44 44 43 43 42 41 40 38 36 34 33 31 30 29 29 27 26 24 22 21 22 22 22 22 23 23 22 22 21 19 18 16 14 12 10 8 6 4 2 2 4 5 7 9 8 9
31 32 32 32 34 35 36 36 37 38 39 39 40 41 41 41 41 41 41 42 43 43 44 45 44 44 43 43 43 44 45 46 46 46 46 46 46 45 45 45 44 44 44 43 43 41 39 37 34 33 32 31 31 29 27 25 23 22 21 20 19 18 19 20 21 22 23 21 18 17 16 13 11 10 8 6 3 3 5 5 5 6 7 7 7
33 32 30 29 33 35 35 36 37 38 39 40 40 40 40 40 41 42 43 43 43 43 43 43 42 43 44 44 44 44 44 45 46 46 46 46 45 45 45 45 45 45 45 44 43 42 40 38 37 35 34 32 30 29 28 26 24 23 22 21 20 20 19 18 17 17 18 18 17 16 14 12 11 9 6 3 4 6 7 7 7 8 8 9 10
33 33 32 31 32 33 35 36 37 38 39 40 40 40 40 40 40 41 41 41 41 42 42 43 43 44 45 45 44 44 44 45 45 45 45 45 45 45 44 44 44 44 45 44 43 42 42 41 41 39 36 33 31 30 29 28 26 24 22 22 21 21 20 19 17 16 15 15 15 14 13 11 9 7 5 5 6 7 9 10 11 11 11 11 13
33 34 33 33 33 33 36 37 36 37 38 39 39 40 40 40 39 38 38 39 41 42 42 43 43 43 44 44 43 43 44 45 44 44 44 44 45 44 43 43 42 42 43 43 42 43 43 43 42 40 37 35 33 32 31 30 28 25 23 23 22 21 20 20 19 18 16 15 15 13 12 11 9 8 7 7 7 8 10 11 12 11 12 14 15
32 34 34 35 36 36 37 37 36 36 37 37 38 39 40 40 40 39 38 38 38 38 38 40 42 42 43 43 43 43 44 44 44 44 44 44 44 43 42 41 41 41 41 41 42 42 42 42 41 40 39 37 35 34 33 31 29 27 26 24 22 21 21 20 19 19 17 16 14 12 11 9 8 8 8 7 7 9 10 11 11 11 12 14 15
30 34 36 38 39 39 38 38 37 36 37 37 38 39 40 40 41 40 39 37 36 37 38 39 42 43 43 43 43 43 43 44 45 44 44 44 44 43 42 41 41 41 42 43 43 43 42 41 42 41 40 40 39 37 35 32 30 29 28 26 24 23 23 21 20 19 17 15 13 11 9 8 7 8 8 7 8 9 10 12 13 12 12 12 13
31 34 37 39 40 40 40 39 38 38 39 39 39 40 40 40 41 43 43 41 40 41 41 40 41 43 44 45 45 45 45 45 45 45 45 45 45 45 43 41 40 41 41 42 42 42 42 42 42 41 41 42 41 38 36 34 33 32 31 29 28 28 27 23 21 19 16 15 13 11 10 9 8 9 9 9 9 8 10 13 14 13 14 14 14
34 37 39 39 37 37 38 40 40 41 42 41 41 41 41 40 40 41 42 42 42 42 41 40 39 40 43 46 46 46 47 47 47 47 46 46 46 46 43 41 39 39 40 40 40 41 42 41 40 39 39 40 39 38 37 36 35 34 33 32 32 31 29 25 22 20 17 14 12 10 9 9 9 10 11 11 10 9 11 13 15 16 18 19 18
36 38 39 37 34 34 37 40 42 43 44 43 41 40 39 38 39 39 39 38 38 39 39 39 39 40 42 43 44 44 46 47 48 48 48 47 48 47 44 41 40 39 38 38 38 38 39 39 37 37 37 38 38 38 38 37 35 34 34 35 34 31 28 24 22 19 16 14 11 9 9 8 8 9 10 10 10 10 12 14 15 17 20 21 20
33 34 34 34 35 37 39 41 43 45 45 44 41 39 39 39 39 39 37 35 35 36 36 37 37 38 39 41 42 42 44 46 48 48 48 48 49 48 46 44 43 41 38 37 37 38 38 38 38 37 36 36 37 38 37 37 35 34 34 35 31 26 24 24 21 17 15 13 11 9 9 8 9 10 10 10 11 13 13 14 15 17 19 19 19
28 27 28 30 33 37 39 41 42 41 42 44 43 41 40 40 40 40 38 36 35 35 35 35 35 34 35 37 39 39 40 44 47 49 48 49 50 50 48 46 43 40 37 36 36 36 37 38 39 38 37 36 37 38 38 37 35 33 33 32 26 21 22 22 18 15 14 12 11 10 10 10 11 12 12 12 14 14 14 15 17 18 19 19 18
27 25 27 29 32 35 39 40 39 38 40 44 44 42 40 39 39 39 38 36 34 33 33 33 32 31 31 32 34 36 37 40 44 48 48 48 49 50 48 44 41 39 38 37 37 37 37 38 39 38 37 37 38 38 37 37 36 34 31 28 25 22 20 18 16 15 14 12 12 13 13 13 13 13 14 15 15 16 16 18 20 20 21 23 23
28 26 28 30 31 34 37 38 38 39 42 44 42 39 39 40 38 37 37 36 33 31 30 30 30 28 28 29 31 33 35 36 40 45 47 47 47 48 47 43 40 39 38 38 38 38 37 38 39 39 38 38 39 39 37 36 36 34 30 27 25 23 20 18 17 16 15 15 15 16 16 16 15 16 17 17 17 18 19 20 22 23 23 25 26
28 27 28 29 31 32 34 36 38 39 41 44 44 40 39 39 37 36 36 35 32 30 29 30 30 28 28 28 30 33 34 35 37 40 44 45 44 45 45 43 40 38 38 37 37 37 38 38 39 39 39 40 39 37 36 35 34 31 28 26 25 23 21 20 19 18 18 19 20 20 19 17 17 17 18 18 18 19 21 21 22 22 21 22 23
28 28 29 30 32 34 34 34 36 36 36 40 44 45 43 40 37 36 35 33 33 31 30 30 29 28 28 28 30 31 33 34 35 37 40 41 41 42 44 42 40 38 37 35 34 35 36 37 38 38 39 39 38 37 35 34 31 29 27 26 26 25 23 23 22 22 23 23 22 22 20 18 18 19 19 19 20 20 20 20 20 20 18 18 18
26 26 28 29 31 35 35 33 34 35 35 35 35 39 44 42 38 36 35 33 31 30 30 30 28 26 26 27 29 31 32 33 34 36 39 39 38 40 41 40 38 35 34 33 32 33 34 35 36 38 38 37 36 35 34 32 30 29 28 27 26 26 25 24 24 24 25 24 23 21 20 19 19 20 20 20 20 19 19 18 18 18 16 14 15
24 24 26 28 29 33 35 35 34 34 36 36 33 34 40 41 39 39 41 40 34 31 30 30 30 30 29 28 28 29 31 35 38 40 41 41 40 39 38 36 34 33 32 31 30 31 32 33 34 35 34 33 32 32 32 31 30 29 29 28 27 26 25 24 24 24 25 24 22 21 21 21 21 21 20 20 20 19 18 17 17 16 15 13 16
22 22 24 25 27 29 32 35 35 34 34 36 35 35 39 44 43 42 45 49 48 44 39 36 37 38 37 37 36 31 30 37 44 46 46 46 44 42 39 37 35 34 33 33 31 30 31 32 33 33 32 31 31 30 31 31 30 29 29 29 28 27 26 26 26 27 27 26 25 24 24 22 21 20 20 20 20 19 17 16 16 15 14 15 18
17 18 20 20 23 25 26 29 32 32 31 32 31 29 31 38 40 39 43 51 55 56 54 51 50 47 43 43 46 46 43 46 50 49 48 48 46 44 42 40 38 35 34 34 33 32 33 33 32 33 33 31 31 31 31 31 31 30 31 30 29 29 28 28 29 29 28 27 27 25 24 23 22 21 20 20 20 18 17 16 15 15 16 17 19
10 13 17 19 22 25 25 25 27 29 29 30 29 24 22 26 30 31 34 43 49 53 55 57 57 55 50 46 46 45 42 43 48 51 50 48 46 44 42 40 39 37 37 36 34 32 31 30 29 31 31 31 31 31 31 32 32 31 31 31 30 30 30 30 31 30 29 28 27 25 25 24 23 21 21 20 19 18 17 16 16 17 18 18 19
10 12 16 20 23 25 25 25 25 25 25 26 26 24 19 17 18 19 21 28 36 41 42 42 45 50 52 50 47 41 35 36 44 50 50 48 47 45 42 40 39 38 39 38 35 32 31 30 29 29 30 30 30 31 31 31 32 32 31 30 30 31 32 33 32 31 30 28 27 26 25 24 22 21 21 20 19 18 18 17 18 18 19 18 19
15 15 17 19 22 23 23 23 23 23 23 23 24 24 21 16 14 12 12 17 25 32 33 33 35 40 43 43 45 45 42 41 44 48 49 49 49 46 42 41 40 39 39 37 32 28 29 30 28 29 30 30 30 30 30 31 32 32 31 31 31 31 32 31 30 29 29 29 28 26 25 23 22 21 20 20 20 19 19 19 19 18 17 18 19
18 17 18 19 20 20 20 21 21 22 23 23 23 23 23 22 19 16 13 12 15 21 26 28 31 36 38 37 38 41 42 42 44 48 49 49 48 46 43 39 37 37 38 36 31 27 27 27 26 27 29 29 29 29 29 30 31 31 30 29 28 27 26 27 27 27 28 28 27 25 24 23 21 21 21 21 21 21 21 20 19 18 18 18 19
17 17 20 22 20 19 20 20 20 20 20 21 22 21 22 23 24 22 19 15 14 17 22 25 31 37 39 38 39 41 41 41 43 46 48 47 46 45 41 35 32 32 32 32 30 28 27 27 27 28 29 29 29 29 29 29 30 29 28 26 24 22 22 23 24 26 26 26 26 25 23 23 22 22 22 22 22 23 23 22 20 20 19 19 19
14 14 18 20 18 18 19 19 19 19 19 20 22 22 22 23 23 22 22 20 17 17 18 21 27 33 36 36 38 40 39 39 40 43 46 47 47 45 39 32 29 29 29 29 29 28 27 28 28 28 28 28 28 28 28 27 27 26 24 22 21 20 21 22 24 25 26 26 26 25 24 23 23 23 23 24 25 25 25 23 21 20 20 20 20
13 13 15 16 16 16 16 15 16 17 17 17 18 19 20 21 22 21 20 19 19 19 18 20 24 27 28 32 36 37 37 37 39 41 44 46 47 45 39 33 30 29 28 28 30 29 29 29 28 27 27 27 27 26 26 24 23 22 20 19 19 19 20 22 24 26 26 26 26 26 25 25 25 25 25 26 26 25 24 22 21 20 20 20 20
15 15 16 16 17 16 16 15 14 15 15 16 17 17 17 17 19 19 18 18 19 20 20 22 25 25 25 29 35 37 37 36 35 36 38 40 41 39 36 33 32 30 29 29 30 30 29 27 26 26 26 25 25 24 23 21 20 19 18 18 18 18 19 21 23 25 26 27 26 26 26 26 26 26 26 27 27 25 24 22 21 20 20 20 20
19 19 19 19 19 18 17 16 16 15 15 15 15 16 16 16 16 16 16 17 18 19 20 20 21 22 25 30 35 38 37 34 32 32 33 34 34 32 31 30 29 29 28 27 27 27 25 24 23 24 24 24 23 22 20 20 19 20 19 19 18 19 20 22 24 26 27 27 27 26 27 27 27 27 27 27 27 25 24 23 22 22 21 22 22
23 22 22 22 22 21 20 19 17 15 15 15 15 16 15 14 14 15 16 16 16 17 18 18 17 20 26 31 36 38 35 30 29 30 31 29 28 27 27 27 27 26 25 24 23 22 22 22 22 22 22 21 21 20 20 20 20 20 20 19 20 21 22 23 25 26 27 27 27 27 28 28 27 27 27 27 27 26 24 24 23 23 23 24 24
25 24 24 24 24 24 23 21 19 18 17 16 16 16 15 14 15 16 16 16 16 15 15 15 16 19 23 27 32 35 32 29 28 28 27 26 26 25 24 24 24 23 23 21 21 20 20 20 20 20 20 20 20 21 21 21 21 21 20 19 20 21 22 23 25 26 27 27 27 27 28 28 27 27 27 27 26 25 24 24 24 24 25 25 24
29 27 26 26 26 25 23 21 20 21 20 19 18 17 17 17 17 17 17 16 17 17 18 17 18 19 18 20 25 29 29 29 28 27 25 25 24 23 22 21 20 19 19 19 18 19 18 19 19 19 19 20 21 21 22 22 21 20 19 18 19 20 22 23 24 25 26 27 27 27 27 28 27 27 27 26 25 24 24 24 23 24 24 25 24
33 33 32 32 32 32 30 28 28 28 26 24 22 20 20 20 20 20 21 20 19 20 20 19 20 20 19 18 22 25 27 27 27 26 24 23 22 20 19 17 16 16 15 15 15 16 17 18 18 19 19 20 20 20 21 20 19 18 18 18 19 21 22 23 24 24 25 26 26 27 27 27 27 27 26 25 24 24 24 24 24 24 24 24 23
32 32 32 31 31 32 33 33 34 33 32 31 29 26 25 25 24 23 23 22 21 21 21 20 20 22 21 20 22 23 24 24 23 23 22 20 19 17 16 15 14 13 13 12 13 13 14 14 15 16 16 16 16 16 16 16 16 16 17 18 19 20 21 22 23 24 24 25 26 26 27 27 27 27 26 25 24 23 23 24 24 24 24 23 22
32 30 29 28 27 27 28 28 29 29 28 28 28 27 25 25 25 24 23 23 22 22 22 21 22 23 23 23 23 23 22 21 21 20 19 18 17 15 13 12 11 11 10 10 10 10 10 11 11 11 11 11 12 12 13 13 13 14 14 15 16 18 19 21 21 22 23 25 26 26 26 26 26 26 26 25 25 24 24 24 24 24 23 22 21
33 31 28 27 27 27 27 27 28 28 27 26 27 27 26 24 24 24 24 23 23 23 23 23 24 24 24 25 25 25 23 22 21 19 18 17 16 14 12 11 10 10 9 8 8 7 7 8 8 8 8 8 9 9 9 10 11 11 11 12 14 15 17 18 20 21 22 23 24 25 25 26 26 26 26 25 25 25 25 25 25 24 23 22 21
33 31 29 29 29 29 30 30 29 28 28 29 31 32 30 28 28 29 28 27 26 25 25 25 26 26 25 25 25 24 23 22 21 20 19 17 16 14 13 11 10 10 9 8 8 7 7 7 7 7 7 6 6 7 7 7 8 9 10 11 13 14 16 17 18 20 22 23 24 25 25 26 26 26 26 25 25 25 25 25 24 24 23 22 21
37 35 34 33 31 29 29 30 30 29 30 32 33 33 32 31 32 32 31 30 29 28 27 27 27 27 27 26 24 22 22 21 20 19 18 16 15 13 12 10 10 9 8 7 6 5 4 4 4 4 4 5 5 6 7 8 9 9 10 11 13 14 15 16 18 19 20 21 23 25 26 27 27 27 26 25 25 25 25 24 24 23 22 21 21
43 41 40 39 37 33 31 30 29 29 31 33 32 31 31 31 31 30 30 30 30 29 28 28 27 27 26 25 23 22 21 20 19 18 16 15 13 12 10 9 8 7 5 5 3 2 1 1 2 3 4 4 5 6 7 8 10 11 12 13 14 14 15 15 17 18 19 20 22 23 24 25 26 26 26 25 25 25 25 24 23 23 22 22 22
46 44 42 41 40 38 36 34 32 30 31 33 32 31 31 31 30 29 30 30 30 29 28 28 27 26 25 24 22 21 20 19 18 17 15 14 12 10 9 7 6 5 4 3 2 1 2 2 3 3 3 4 5 6 7 8 9 9 9 10 11 12 13 14 15 17 18 19 21 22 23 24 25 26 26 25 24 23 23 23 23 23 23 23 23
45 44 43 41 40 39 38 37 35 33 33 34 33 32 32 31 31 30 30 30 29 28 27 26 25 24 23 21 20 19 18 17 16 14 13 11 10 8 6 5 4 3 3 2 2 3 3 4 4 4 5 5 6 6 7 7 6 6 5 5 6 7 8 9 11 12 13 14 15 16 17 19 21 23 23 22 21 21 22 22 23 23 23 23 23
Wind_Direction
192 193 195 194 192 192 194 196 197 198 198 196 196 197 197 197 198 198 198 199 199 199 198 198 198 197 196 197 197 197 198 200 202 202 201 202 203 205 205 203 203 203 201 200 200 199 199 199 199 199 199 200 200 198 197 196 195 192 190 188 186 188 188 174 150 157 174 182 193 197 161 102 55 354 324 343 6 3 10 19 12 1 358 10 18
192 193 194 195 193 192 193 194 195 195 196 196 196 197 196 197 198 197 198 201 202 202 201 200 198 197 196 195 196 197 200 202 202 201 201 202 203 205 206 205 204 203 201 199 197 196 197 196 195 195 196 197 196 195 195 194 192 191 190 192 191 189 191 185 171 166 177 191 197 187 152 176 251 302 302 330 346 345 13 356 320 329 329 346 360
193 192 193 195 194 192 192 193 193 194 195 196 197 198 197 197 197 197 199 201 203 203 202 199 197 196 196 195 196 198 201 201 200 200 202 203 204 205 206 206 205 204 201 198 195 194 194 193 192 191 191 192 193 194 196 195 194 194 192 194 193 189 190 191 185 180 177 178 184 188 193 222 253 271 277 292 296 290 283 274 291 334 7 9 4
194 193 194 195 194 192 191 192 193 194 196 197 198 198 199 198 198 198 199 199 199 199 199 199 197 196 195 195 196 198 199 199 199 201 202 204 205 205 205 206 207 206 203 198 195 193 191 190 189 188 188 189 190 193 195 197 197 195 192 191 191 188 187 191 194 193 182 170 173 200 221 244 261 261 262 264 262 264 266 271 324 28 18 5 4
195 194 194 194 194 194 192 192 193 195 197 198 199 199 198 197 196 195 195 195 195 195 196 197 198 196 195 195 195 196 197 198 199 200 202 204 205 205 205 206 207 207 204 200 196 193 191 189 187 186 187 188 189 192 195 196 196 195 191 188 187 187 188 193 197 203 201 188 189 218 240 251 252 255 256 249 253 260 257 257 3 12 4 2 3
197 195 194 194 195 195 194 194 195 195 196 196 197 197 195 193 192 192 192 192 193 193 195 196 197 196 195 195 195 196 198 199 200 200 201 202 203 204 204 205 205 206 204 202 198 194 192 190 187 188 189 190 191 193 194 194 193 192 190 188 188 189 189 192 195 201 212 218 223 233 243 247 248 247 235 237 255 261 259 280 343 16 5 360 357
201 197 195 195 196 196 196 196 197 197 197 196 196 194 193 192 191 190 190 190 190 191 193 195 196 196 195 195 196 197 198 199 200 200 200 200 201 202 203 203 203 204 204 202 199 197 195 193 191 191 192 192 191 190 190 190 191 191 191 189 188 188 185 185 190 197 207 218 228 234 236 239 244 241 228 235 249 232 266 331 3 14 2 356 354
206 200 197 197 197 198 198 198 198 199 199 198 195 193 191 190 189 188 188 188 189 191 192 193 194 195 196 196 197 198 198 199 199 200 200 200 201 201 201 201 201 201 202 201 200 199 199 197 196 196 195 194 192 190 189 189 188 190 191 189 185 183 181 182 187 196 205 215 225 231 232 231 234 236 229 226 226 217 253 353 14 12 360 354 352
210 203 199 200 200 199 198 198 198 199 199 197 194 191 189 188 188 187 187 188 190 192 193 193 192 191 193 196 196 197 198 199 199 199 200 200 200 200 199 198 198 198 198 198 198 200 201 201 200 200 198 196 195 194 192 189 186 184 185 186 184 182 182 184 188 195 201 210 220 224 225 226 229 229 221 213 217 233 322 9 18 16 6 358 354
215 206 202 202 201 198 197 197 196 195 196 195 191 190 189 187 186 186 187 189 189 190 190 191 190 190 191 193 195 197 198 200 200 201 201 200 199 198 197 197 197 196 195 194 195 198 200 202 201 201 200 198 197 197 195 191 187 183 182 184 185 186 186 186 191 197 200 205 213 215 216 223 226 221 216 218 226 249 347 9 9 11 15 7 355
222 215 208 203 199 197 195 194 192 191 192 191 189 188 187 186 185 185 186 187 187 188 188 188 189 190 191 192 194 196 199 201 202 202 202 201 199 197 196 195 195 196 195 194 193 195 197 198 199 199 199 199 197 197 194 190 188 187 188 189 190 193 193 190 193 199 201 204 209 211 215 221 222 216 218 226 231 253 325 357 6 12 23 19 349
226 226 218 205 196 195 194 191 189 189 189 188 186 186 185 184 183 183 184 184 185 186 187 188 188 189 191 193 195 197 200 202 202 202 202 202 200 198 196 194 195 195 196 195 193 192 193 193 195 197 197 196 194 192 190 188 187 188 190 190 190 195 199 198 198 200 202 203 205 210 217 220 219 218 219 223 244 297 327 345 2 4 4 356 323
221 227 226 213 201 195 191 189 188 187 187 186 185 184 183 182 182 183 184 184 184 185 186 187 188 189 191 193 195 197 199 201 202 202 201 201 201 199 196 195 195 195 195 195 193 191 190 190 191 193 194 192 190 188 187 186 186 187 187 187 189 193 196 200 203 204 204 203 202 209 219 223 222 220 221 247 297 319 328 328 333 332 326 321 307
214 220 223 217 208 198 191 190 189 187 186 184 182 182 182 183 183 184 184 183 182 184 185 187 189 191 192 193 194 196 197 199 200 200 200 200 201 200 198 196 195 195 195 194 192 191 191 189 188 188 189 189 189 188 188 186 187 188 187 187 190 192 193 196 200 204 206 205 207 213 220 227 230 234 255 288 302 309 310 309 312 314 310 305 299
210 215 217 216 211 201 193 191 189 186 185 183 181 181 182 183 183 183 183 183 184 185 186 188 189 191 192 193 192 194 196 198 198 198 198 199 200 199 198 196 196 196 195 194 194 194 191 189 187 186 185 186 188 189 190 189 187 187 188 190 190 191 195 198 201 204 208 211 215 217 219 226 236 249 267 282 288 293 299 301 302 303 303 301 297
208 209 211 212 209 203 196 191 188 186 183 181 181 181 182 183 183 182 183 184 186 187 187 188 189 190 192 192 191 192 194 196 196 196 196 197 197 197 197 197 196 196 196 196 196 195 192 190 188 186 185 186 188 190 190 188 187 188 189 191 191 195 199 201 204 208 211 214 215 216 218 226 239 249 259 272 285 293 299 297 295 297 299 296 292
210 208 208 209 206 202 198 191 186 183 182 182 182 183 183 183 182 182 181 182 184 187 188 189 190 191 191 192 192 191 192 193 194 194 194 195 195 195 196 196 196 197 198 197 197 195 194 193 191 189 188 188 188 189 188 187 187 189 190 191 193 198 200 203 208 210 208 207 207 209 217 226 238 248 252 260 273 282 285 285 286 290 292 287 284
210 208 210 209 204 200 196 191 185 182 182 184 185 183 183 183 183 182 181 182 184 187 188 189 191 191 192 193 193 192 191 192 193 193 194 195 196 196 195 195 195 197 197 196 196 196 196 196 195 192 190 189 188 187 186 186 188 189 190 191 194 198 200 202 205 202 198 201 205 211 220 224 225 229 230 236 249 259 266 272 278 280 279 275 276
212 210 210 209 205 200 194 190 186 184 184 185 185 183 183 183 183 183 183 183 184 186 187 187 188 191 193 194 194 192 191 191 192 193 194 196 197 196 194 193 193 195 195 195 196 197 197 196 196 196 193 190 188 187 186 188 189 190 191 190 193 199 201 200 198 195 194 200 205 210 214 213 214 220 224 230 238 248 258 263 267 270 270 270 271
218 215 211 207 203 199 195 192 189 186 185 184 183 183 182 181 181 182 182 183 183 183 185 185 186 189 192 194 194 193 191 190 191 193 194 196 197 196 193 193 194 195 195 195 195 196 196 194 195 196 195 192 189 188 189 191 192 192 192 193 197 201 199 197 197 196 195 198 200 201 200 203 216 227 231 234 242 254 262 263 263 263 265 267 267
228 222 213 205 199 196 196 196 193 189 185 181 178 180 181 181 181 180 180 181 181 181 182 184 185 187 191 193 193 194 193 191 191 193 194 195 197 196 195 196 197 196 195 195 195 194 193 193 194 195 195 194 192 191 192 194 195 196 196 200 206 204 194 193 197 196 195 197 197 196 198 205 219 226 228 237 250 259 260 256 253 254 256 261 263
237 230 219 209 200 194 194 196 195 190 184 178 175 177 180 181 181 179 178 178 179 180 181 181 182 185 188 192 193 194 195 194 192 192 193 195 197 198 198 198 198 196 194 194 195 194 192 193 194 194 195 195 194 193 195 197 198 200 203 207 210 204 194 193 196 194 196 198 197 201 208 214 219 223 230 240 250 254 249 242 242 245 248 251 256
239 226 217 210 202 196 193 194 192 187 182 179 176 175 176 178 179 178 177 176 176 178 180 180 179 180 183 189 193 194 194 195 193 193 193 195 198 200 200 199 199 198 196 195 195 194 194 195 196 195 195 196 195 195 197 199 200 204 206 207 206 202 197 196 195 196 199 200 203 212 218 221 224 228 233 239 244 246 242 238 240 244 247 249 251
234 217 209 205 200 196 193 190 189 187 184 180 176 173 173 174 176 178 178 175 175 177 179 180 178 177 179 184 189 193 194 194 195 195 194 195 198 201 201 201 202 202 200 198 197 195 196 197 197 196 195 195 196 196 196 198 201 205 205 203 202 200 197 197 198 200 202 204 210 218 223 225 229 233 234 237 242 245 244 244 248 253 255 256 256
228 212 203 199 196 194 191 188 188 189 186 180 175 173 174 173 174 178 178 176 177 177 178 181 181 179 180 181 185 189 192 193 195 196 196 197 199 202 202 203 205 205 203 201 199 198 198 199 198 196 194 195 194 194 195 198 202 202 200 198 198 199 198 200 202 204 206 208 213 220 224 226 230 234 237 241 244 247 250 253 258 263 267 269 268
224 211 200 195 191 188 186 186 187 189 190 187 179 174 174 174 174 176 177 179 181 180 179 182 183 181 181 182 182 184 188 191 194 195 196 197 199 201 202 204 207 208 205 204 203 201 202 201 198 194 193 193 193 193 195 198 199 198 196 196 198 200 202 204 206 206 209 212 215 221 225 226 229 232 238 244 248 251 255 259 265 271 274 274 271
220 209 198 191 187 184 183 183 183 184 189 193 188 178 175 176 176 175 178 181 182 182 181 182 183 183 182 181 179 180 185 189 192 194 194 195 197 200 201 203 205 205 203 203 204 204 203 200 195 192 192 192 193 195 195 195 195 195 197 199 203 205 208 210 211 212 214 217 219 222 224 224 226 232 239 246 250 253 256 260 266 270 269 264 261
214 204 193 186 182 182 182 181 181 182 185 191 193 185 178 178 180 181 182 181 181 182 182 183 185 185 181 176 175 179 185 190 193 193 193 192 194 196 198 199 200 200 200 202 204 203 199 193 189 188 189 189 191 194 195 194 195 197 200 202 206 209 211 214 217 219 221 222 221 220 219 220 226 234 241 246 250 252 254 257 261 263 261 254 253
208 198 190 184 181 181 182 181 182 183 183 187 194 194 186 184 186 186 185 185 187 186 184 185 189 187 183 180 179 179 186 194 196 195 193 193 193 194 194 196 197 198 201 202 199 192 187 184 183 184 184 186 189 192 194 196 199 201 204 206 209 211 211 213 216 219 220 219 218 217 217 221 227 233 238 244 247 250 252 255 255 254 250 246 250
202 193 187 183 180 179 181 183 183 183 183 185 192 198 196 193 191 188 187 190 193 192 190 191 193 190 187 188 188 189 193 196 196 194 193 193 194 194 195 197 197 197 199 199 193 185 181 181 183 184 185 188 191 194 196 198 200 203 207 211 213 214 213 214 217 219 218 218 219 219 221 224 227 230 235 240 244 248 251 252 250 246 241 241 250
194 190 185 183 180 178 180 182 182 182 183 183 185 189 193 197 199 198 196 195 196 197 197 197 195 192 190 191 192 194 196 195 193 192 192 192 193 194 195 196 196 197 197 193 188 184 184 185 187 189 191 193 196 198 199 200 202 205 208 212 215 215 215 217 219 220 220 220 221 222 224 226 228 230 235 240 244 248 249 247 243 241 240 242 250
190 186 184 182 180 178 180 181 181 182 181 181 183 182 179 185 197 207 211 206 202 202 203 201 197 194 193 192 189 189 193 194 192 191 191 191 191 193 194 195 195 197 196 192 187 186 188 190 192 194 196 199 202 203 203 204 206 208 210 213 216 217 218 220 221 221 221 221 221 222 224 227 230 233 237 241 245 246 247 245 242 241 242 245 249
195 187 181 180 179 179 180 179 180 181 179 178 181 180 176 177 184 189 194 198 201 203 207 208 202 196 194 193 188 185 188 192 192 190 190 189 190 191 192 193 195 194 192 190 190 191 193 195 197 198 200 203 206 207 208 209 210 212 214 216 219 220 221 222 223 223 222 223 223 224 227 230 233 236 240 243 245 246 246 244 242 240 240 244 249
196 188 180 175 175 177 180 180 180 182 182 181 181 182 181 179 177 171 165 166 178 189 198 203 201 194 190 190 187 184 185 187 188 189 188 187 188 189 188 188 191 193 193 192 193 196 197 199 202 204 205 208 210 209 210 212 213 215 218 220 222 223 223 223 224 223 222 223 225 227 230 233 236 238 241 243 244 245 244 241 240 238 238 242 248
191 185 178 175 174 175 178 179 179 181 182 181 183 184 181 177 175 175 175 172 171 174 178 184 189 189 187 185 184 185 185 184 184 186 186 186 186 185 181 179 182 187 190 194 197 200 201 202 206 208 210 212 213 213 213 214 214 216 217 218 220 223 224 224 224 223 223 225 227 230 233 236 239 241 243 243 241 239 239 239 238 238 238 241 245
174 169 168 169 169 170 172 174 178 182 184 184 184 183 180 178 178 178 178 177 174 171 169 170 176 181 182 182 181 182 181 180 180 182 185 186 185 181 177 176 179 182 186 193 198 202 205 207 210 212 214 215 216 216 216 216 216 217 218 220 223 225 226 226 225 224 225 228 230 233 235 237 240 241 241 241 240 239 240 241 240 239 240 241 244
147 143 148 153 152 154 158 162 168 175 177 179 179 177 176 178 178 175 174 174 170 165 160 158 159 164 170 174 176 177 176 176 177 180 183 185 183 181 179 179 180 182 187 193 197 201 206 211 213 216 217 218 218 218 217 218 218 219 221 226 229 229 230 230 229 228 229 230 231 234 236 238 240 240 238 238 240 240 241 241 240 241 242 241 242
116 118 125 131 132 133 136 140 147 155 158 160 164 164 163 166 168 168 167 165 160 156 157 159 159 159 161 164 167 167 166 165 167 171 175 178 179 181 181 179 180 184 189 194 198 201 205 210 214 216 218 218 218 218 218 219 220 222 225 228 230 232 233 233 232 231 231 232 234 236 238 240 241 240 239 239 240 240 240 239 238 239 240 240 239
92 99 109 114 115 116 118 119 123 129 132 135 142 146 147 149 153 154 152 150 151 153 155 159 162 162 159 157 156 155 153 153 157 162 168 173 177 179 178 178 182 187 191 194 198 202 204 208 212 215 217 218 218 219 220 221 223 225 226 228 230 231 231 231 230 230 231 234 236 238 240 240 241 240 240 240 240 240 240 239 238 238 238 239 239
79 84 93 97 99 101 103 104 105 109 114 120 127 132 135 138 141 143 143 142 144 148 151 152 154 157 156 155 154 153 151 152 157 161 164 168 172 175 177 180 183 187 189 191 194 198 201 205 210 213 215 217 219 221 223 224 224 225 226 228 230 232 232 231 231 232 233 236 238 239 240 240 240 240 240 240 240 240 240 239 239 239 239 240 241
75 77 81 86 91 92 90 89 91 95 101 107 112 115 119 124 128 132 134 134 133 132 131 131 137 146 152 155 156 154 151 149 152 156 158 161 165 169 175 180 183 185 187 189 192 196 200 205 209 212 214 217 220 221 223 223 223 224 226 229 231 233 234 233 233 234 236 238 239 239 239 240 239 238 239 240 240 240 239 239 240 240 241 242 242
76 74 73 76 82 83 79 80 86 92 95 96 98 102 107 110 113 115 115 115 117 116 111 113 123 132 139 146 150 149 145 143 145 149 151 155 159 162 167 173 178 184 190 194 199 204 208 211 215 218 219 220 221 221 221 221 222 224 228 233 236 237 237 236 236 237 238 239 239 239 239 239 238 238 239 240 239 237 237 238 240 240 240 242 242
75 75 73 73 76 78 81 84 87 88 89 89 91 99 103 102 102 105 105 104 106 109 108 110 116 117 117 127 138 138 134 135 140 143 145 149 154 156 160 166 171 178 186 195 201 207 213 216 219 222 224 225 225 225 224 225 226 231 236 240 241 240 239 239 239 239 239 240 240 240 239 238 238 238 238 238 238 238 239 240 241 242 242 242 243
74 73 73 73 74 76 80 83 84 86 87 88 88 91 95 95 94 95 97 97 99 102 101 101 104 104 105 113 121 122 121 126 133 137 140 144 148 151 155 160 164 168 174 181 187 193 199 204 208 212 216 219 221 224 226 229 233 237 240 242 242 242 242 242 242 243 244 243 243 242 241 240 239 239 239 239 239 240 241 241 241 241 242 243 243
71 71 71 71 71 72 73 75 77 79 80 81 81 81 84 87 88 88 89 89 89 89 88 87 88 91 94 98 102 103 106 112 118 123 128 131 133 135 138 143 149 154 159 164 170 177 183 188 194 200 205 211 217 221 226 231 235 238 241 244 245 246 247 248 249 250 249 246 244 243 243 242 241 241 241 241 241 240 241 241 241 240 240 241 242
66 68 69 69 69 70 70 72 75 74 73 75 76 76 76 80 83 86 87 86 85 84 83 82 83 84 85 88 91 93 96 100 104 107 112 115 116 118 123 128 133 136 140 145 153 163 171 179 187 194 199 206 215 221 226 233 237 240 244 247 249 252 254 255 256 255 253 250 249 248 247 246 245 244 244 244 243 242 242 242 241 240 240 242 244
65 65 67 68 69 70 71 73 75 74 75 76 77 75 75 77 80 83 85 84 84 84 83 82 83 84 83 85 88 91 94 97 100 100 102 104 106 110 114 119 123 126 128 133 140 148 156 164 173 181 188 196 206 214 222 230 237 242 247 251 253 256 257 256 258 259 259 259 258 256 254 251 249 247 245 244 242 241 241 241 241 240 240 242 246
66 66 67 69 70 70 71 73 75 76 77 78 78 78 79 79 79 80 81 82 82 83 82 82 83 84 84 85 88 90 93 95 96 96 98 99 101 104 107 110 113 117 120 123 130 139 152 164 178 196 208 219 230 237 241 244 244 245 247 250 252 256 259 259 260 260 261 262 262 260 256 253 249 246 245 244 242 242 242 241 240 241 243 246 250
65 66 67 67 67 67 68 69 72 74 76 78 78 77 78 78 77 78 79 79 79 80 81 81 82 83 84 85 87 88 91 92 91 91 93 93 93 96 98 98 101 105 107 107 105 105 136 232 258 261 253 253 257 256 254 255 257 257 257 256 257 260 262 263 262 261 259 259 260 260 258 256 253 250 249 246 243 242 241 241 242 245 248 251 254
65 66 66 66 66 67 68 69 70 71 74 76 76 75 75 75 75 75 76 76 76 76 77 78 78 79 81 82 82 83 84 84 84 85 86 86 87 89 90 90 90 91 88 87 75 33 344 316 303 291 276 269 269 268 271 276 275 273 273 273 270 268 267 263 260 260 260 257 254 252 252 253 253 251 248 245 243 243 244 246 249 252 253 254 257
64 65 66 66 66 67 68 68 68 69 71 72 74 74 74 74 73 74 75 75 74 74 76 77 77 78 78 79 79 80 80 80 81 82 82 81 81 83 81 79 76 65 48 27 353 332 320 313 307 298 289 286 283 278 278 276 268 263 275 282 273 268 269 268 265 265 265 263 260 257 254 252 251 248 245 245 247 250 252 254 255 254 254 255 256
Height
629 633 637 640 642 645 649 654 659 663 667 670 673 676 679 682 686 690 693 697 701 705 709 712 716 719 723 726 730 733 736 740 745 748 752 755 757 759 761 763 764 765 767 769 771 775 777 780 784 787 790 793 795 798 800 802 804 806 807 808 809 810 810 811 812 815 819 821 823 824 825 825 826 827 829 829 830 830 830 830 831 831 831 831 831
624 629 633 636 638 640 645 649 654 659 662 666 668 671 675 678 682 685 688 692 696 700 704 708 712 716 719 723 726 729 733 737 741 745 748 751 754 757 759 761 763 763 765 766 768 771 774 778 781 784 788 791 794 797 799 801 803 804 806 807 808 809 809 810 811 814 817 819 821 822 822 824 825 826 827 827 828 828 829 829 829 830 830 830 829
621 625 629 632 634 637 641 645 650 654 657 661 664 666 669 672 676 680 683 687 691 695 699 704 708 712 716 719 722 726 730 734 738 741 745 748 751 754 756 758 760 761 762 763 765 768 771 775 778 781 785 788 792 795 797 799 801 802 804 805 806 807 808 809 810 812 814 817 818 819 820 821 823 824 825 825 826 827 827 828 828 828 828 827 826
619 622 625 629 632 635 638 641 645 649 652 655 658 661 664 667 670 674 678 682 686 690 695 699 704 708 712 715 719 723 727 730 734 737 741 744 747 750 753 756 758 760 761 762 763 765 768 771 775 778 782 785 789 792 795 797 799 800 802 803 804 805 806 807 808 809 811 813 815 816 817 818 820 821 823 823 824 825 825 825 826 825 825 824 823
617 619 622 626 629 632 634 637 640 643 646 650 653 656 659 662 665 669 673 677 681 686 690 695 699 703 706 710 714 718 723 726 729 733 736 740 744 747 751 754 756 758 760 761 762 764 766 768 772 775 778 782 785 788 791 793 796 798 800 801 802 804 805 806 806 807 807 808 810 813 814 816 818 820 821 821 822 823 823 823 823 823 822 820 819
615 617 619 622 625 627 630 632 635 638 641 644 648 652 654 657 661 664 668 672 677 682 686 690 694 698 702 706 710 715 720 723 726 729 733 736 740 744 747 751 754 756 758 760 762 763 765 767 770 773 775 777 780 783 786 789 792 795 797 799 801 802 803 804 805 805 805 807 809 811 814 815 817 818 819 820 820 820 821 821 821 820 818 816 815
615 615 616 617 620 622 624 627 630 634 637 640 644 647 650 653 656 660 664 668 673 677 681 685 690 694 699 703 708 712 716 720 724 727 730 733 736 740 743 747 751 754 756 759 761 763 765 767 769 770 772 774 776 779 782 786 789 791 794 796 799 801 802 803 803 804 805 807 809 811 813 815 815 816 818 818 818 818 818 818 817 816 814 812 811
614 613 613 614 615 617 619 623 627 631 635 639 642 644 647 651 654 657 661 664 669 673 677 682 686 692 697 701 705 709 713 717 721 724 727 730 733 736 739 743 747 750 754 756 759 762 764 766 767 769 770 772 775 777 780 782 785 788 792 794 796 798 799 801 802 804 806 808 810 811 813 814 814 815 816 816 816 816 815 815 813 812 810 809 809
614 611 610 610 610 613 617 621 625 630 634 637 640 643 646 649 652 656 659 662 666 670 675 680 684 689 694 699 703 707 710 714 717 720 723 727 730 733 736 739 742 746 749 753 756 759 762 764 766 768 770 772 774 776 778 780 782 784 787 790 792 795 797 798 801 804 806 808 810 811 812 813 813 813 814 814 814 813 812 812 811 810 810 809 808
614 609 605 605 607 611 615 619 622 627 631 634 637 640 644 647 651 654 658 661 665 669 673 678 682 686 690 695 700 704 707 711 714 718 721 723 727 730 733 736 739 742 745 748 752 755 759 762 764 766 769 771 773 775 777 779 780 782 783 785 788 791 793 796 799 802 804 806 808 810 811 811 811 811 811 811 811 811 810 809 809 809 809 808 807
616 610 602 601 606 609 612 615 619 622 626 630 634 638 641 645 648 652 656 660 664 668 671 675 679 683 687 692 696 700 704 708 712 716 719 721 724 727 730 733 735 738 740 743 746 749 754 758 761 764 767 769 771 773 775 777 779 781 783 784 786 788 790 793 796 799 802 804 806 808 809 809 809 809 809 809 809 808 808 807 807 806 806 806 806
613 611 606 603 604 606 609 612 614 618 622 627 631 635 639 642 645 649 653 657 661 665 669 672 675 680 685 689 694 698 702 706 710 713 716 720 723 725 727 730 732 735 737 739 742 745 749 753 757 761 763 766 768 771 773 776 778 780 781 783 784 786 788 790 793 795 798 801 803 805 805 806 807 807 807 807 806 805 804 804 804 804 804 805 806
604 608 609 607 602 602 605 608 611 614 618 623 628 633 637 640 643 646 649 653 657 661 665 670 674 677 681 686 690 694 699 703 707 711 714 718 721 723 725 727 729 732 733 735 738 741 744 748 752 756 760 763 766 768 771 774 776 778 779 781 782 784 787 789 791 793 795 798 800 801 802 803 805 805 804 803 802 802 801 801 802 802 803 803 804
596 601 606 606 603 601 602 605 608 611 615 620 624 629 633 637 641 644 648 651 655 658 662 666 670 674 677 681 686 690 695 699 704 708 712 716 719 722 724 726 728 730 731 733 735 737 740 743 746 750 755 758 762 765 768 771 774 776 777 779 781 783 785 787 789 791 793 794 796 797 798 800 800 800 800 800 800 800 799 800 800 801 801 801 801
588 593 599 602 602 600 599 601 605 609 613 617 621 625 629 634 638 642 646 649 652 655 659 662 666 671 675 679 683 687 691 696 701 706 710 713 717 720 723 725 727 728 730 732 733 735 738 740 743 746 749 754 758 761 765 768 770 773 775 777 779 781 783 784 786 788 789 791 793 794 795 796 796 797 797 798 799 799 799 799 799 799 800 799 799
579 584 590 593 595 596 596 597 601 606 611 615 618 621 625 629 634 639 643 647 651 655 658 661 665 669 672 676 679 683 687 692 697 702 707 711 715 718 721 724 725 727 728 730 732 734 736 738 740 743 745 749 754 757 761 764 767 770 773 775 777 779 780 782 783 785 786 788 789 790 791 792 792 794 795 796 797 798 798 798 798 798 799 798 797
572 575 580 582 585 589 591 593 597 602 607 611 614 617 621 625 630 634 639 644 649 652 656 659 662 666 669 673 676 679 683 688 694 698 703 707 711 715 718 721 723 725 726 728 730 732 734 735 737 739 742 745 749 752 756 759 763 766 769 772 775 776 778 780 781 782 783 785 786 787 787 788 790 791 793 795 796 797 797 797 797 798 798 798 797
565 568 570 573 576 581 585 589 593 597 601 605 609 613 617 622 625 628 633 637 642 647 651 656 660 663 666 670 673 676 680 685 690 695 699 704 708 711 715 717 720 722 724 726 728 729 731 733 735 736 738 741 745 748 751 754 757 761 764 768 771 772 774 776 777 778 780 781 782 783 784 786 788 789 791 792 794 795 796 796 797 798 798 797 797
559 561 562 567 573 578 582 585 587 590 594 599 605 609 613 618 622 625 629 632 637 642 647 652 657 660 664 668 671 674 677 681 686 690 695 700 704 708 711 714 717 719 721 724 726 727 729 731 732 734 736 739 743 745 748 750 753 756 759 763 766 767 768 771 772 774 775 777 778 780 782 784 785 787 788 790 791 793 794 795 796 797 797 796 796
558 557 558 563 570 576 580 582 583 585 588 593 600 606 611 616 620 624 628 632 636 640 645 649 653 657 662 666 669 672 674 677 682 686 691 696 700 704 708 711 713 716 719 721 723 725 727 727 729 731 734 737 741 743 746 748 749 753 756 759 760 762 765 767 768 769 771 773 775 777 780 781 783 784 786 787 789 790 792 793 794 795 794 794 794
559 559 559 560 564 569 575 579 581 582 585 589 597 604 609 613 617 621 626 631 635 639 643 647 651 655 659 663 667 670 673 675 679 683 688 693 697 701 704 707 710 713 716 719 721 722 722 723 725 728 732 735 739 742 744 746 748 751 753 755 758 761 763 764 766 767 768 769 772 774 777 779 780 782 783 784 786 787 789 790 791 792 792 791 791
559 561 561 560 561 564 569 575 580 583 585 587 592 598 605 610 614 618 623 627 632 637 641 644 648 653 658 662 665 669 672 675 677 681 685 689 693 697 700 704 708 711 714 717 718 719 719 721 723 727 730 734 737 740 743 745 747 749 751 754 758 761 762 762 763 764 765 766 769 771 773 775 777 779 780 782 783 784 785 787 788 789 789 789 789
555 557 558 559 560 562 565 570 578 583 585 585 587 592 599 606 612 616 620 624 630 635 639 642 646 650 655 660 664 667 670 674 676 679 683 687 690 694 698 702 706 710 712 713 714 716 718 720 723 727 730 733 736 739 742 745 747 748 750 754 757 759 759 760 761 761 762 764 766 768 769 771 773 775 777 778 779 781 782 784 785 786 786 786 786
549 549 551 554 556 559 562 567 574 579 581 582 586 591 595 600 608 613 616 621 626 631 637 641 643 647 651 656 661 665 668 672 675 678 681 684 688 692 697 701 705 708 710 711 712 714 716 719 722 726 729 732 735 738 741 743 745 746 748 752 755 756 756 756 757 759 760 761 763 764 766 768 770 772 774 775 776 778 779 781 782 783 784 783 783
544 544 545 548 552 556 560 564 569 575 578 579 580 585 591 596 602 608 612 616 621 626 632 636 639 642 647 651 656 660 665 670 673 677 680 683 687 690 695 700 703 706 708 709 710 712 715 718 722 726 729 732 734 737 740 741 743 744 746 748 751 752 752 753 754 756 757 758 760 761 763 766 768 769 771 772 774 775 776 778 779 779 780 780 779
538 538 540 542 546 551 556 560 565 571 577 577 574 575 582 589 594 600 606 611 615 620 625 630 635 638 642 646 651 656 662 667 670 674 678 682 685 689 693 697 701 704 707 708 710 712 715 719 723 726 729 731 733 735 737 739 741 742 743 745 747 748 749 750 751 753 754 755 757 758 761 763 765 766 768 769 770 772 773 774 775 775 776 776 776
531 532 534 537 541 545 549 555 559 564 572 578 576 573 575 582 588 592 596 603 609 615 619 624 629 633 637 642 648 653 658 663 667 670 674 678 683 687 691 695 699 702 704 706 709 712 716 719 723 726 729 731 732 733 735 737 738 739 740 742 744 745 746 747 748 749 750 752 754 757 759 761 762 763 764 765 767 768 770 770 771 772 773 774 774
525 526 528 531 535 538 543 549 554 558 563 571 575 572 570 575 580 581 583 591 600 607 613 617 621 625 631 637 644 649 654 656 659 663 667 672 678 682 687 691 695 698 701 704 709 713 717 720 724 726 728 729 730 732 734 734 735 735 737 739 741 742 744 745 746 747 748 750 752 754 755 757 758 759 761 762 764 765 766 767 768 768 770 771 771
520 522 524 527 530 534 539 543 548 553 557 563 569 569 566 567 571 573 576 582 590 596 602 608 613 618 623 628 633 639 644 646 649 654 661 666 671 676 681 686 691 695 699 703 709 713 717 719 721 722 724 726 727 729 730 730 731 732 734 736 738 739 740 741 742 743 745 747 748 749 751 753 754 756 757 759 760 762 763 764 765 766 767 768 767
516 518 521 524 527 531 537 540 544 550 554 559 565 569 570 568 570 572 575 579 584 588 591 596 603 610 616 619 622 625 630 635 641 650 656 662 667 672 678 683 689 694 699 704 709 712 713 715 716 717 719 721 723 724 725 725 727 728 730 732 734 735 736 737 738 739 741 743 744 746 747 749 751 752 754 755 757 759 760 761 762 763 764 764 763
513 514 518 522 525 529 534 539 543 547 551 555 561 567 571 573 575 578 579 581 585 589 590 592 596 602 608 613 619 625 630 634 640 646 652 659 666 672 677 683 688 692 697 702 707 709 710 711 712 713 715 716 718 719 719 720 722 724 726 728 730 730 732 733 734 736 738 740 741 743 744 746 747 749 751 752 754 756 757 758 759 760 760 759 759
509 511 515 519 523 527 532 536 540 545 548 553 558 563 568 573 577 581 584 585 587 591 595 598 599 602 605 608 615 623 630 635 640 644 650 657 664 670 676 682 687 692 696 699 702 704 706 708 709 710 711 712 713 715 716 716 718 720 722 724 725 726 727 729 730 733 735 736 738 740 741 743 744 746 748 750 751 753 754 755 756 757 756 755 755
505 509 513 517 521 526 530 533 538 542 545 550 555 559 564 569 574 579 583 587 589 593 598 601 602 604 608 610 613 617 623 630 638 644 649 655 661 668 674 679 685 690 694 696 699 701 702 704 705 706 707 708 710 711 712 713 714 716 717 719 720 722 724 726 728 731 733 734 736 737 738 740 741 743 744 746 748 750 751 752 753 753 753 752 751
504 508 511 515 519 524 528 531 535 539 543 547 552 555 559 563 569 575 580 585 588 592 597 601 603 605 608 612 615 617 621 627 634 641 648 654 660 665 672 678 684 688 690 692 696 698 700 701 703 704 705 706 707 708 709 710 711 712 714 716 717 720 722 724 726 728 730 732 733 734 735 737 738 739 741 743 745 747 748 749 749 749 749 748 748
504 508 511 515 519 522 526 530 534 538 542 546 550 554 558 562 567 572 575 579 583 588 592 597 600 603 605 608 613 616 619 624 631 639 646 654 659 664 670 676 681 684 686 689 693 695 697 699 700 702 703 704 705 705 706 707 708 710 711 713 715 717 720 722 724 726 728 729 731 731 733 734 735 736 738 740 742 744 744 745 745 745 745 745 745
505 509 513 516 519 523 526 530 534 538 542 546 550 553 557 561 566 570 574 578 582 587 592 596 599 603 606 608 611 615 619 623 629 636 644 651 656 661 666 670 674 677 681 684 688 692 694 696 697 699 700 701 702 703 704 705 707 708 710 712 713 715 717 719 722 724 726 727 728 729 730 731 732 734 736 737 739 740 740 740 741 741 741 742 742
507 511 515 518 521 524 528 532 536 540 544 548 552 555 558 562 566 570 574 579 582 587 592 596 599 603 607 610 612 615 619 624 629 635 643 650 653 656 660 663 668 672 676 680 684 687 690 692 694 695 697 699 700 702 703 704 706 708 709 711 712 713 715 717 719 721 723 724 725 726 727 727 729 731 733 734 735 736 736 736 736 737 738 739 740
511 514 517 520 523 527 531 534 538 542 546 550 554 557 560 563 566 570 574 578 581 586 590 594 597 600 604 607 611 615 620 625 630 637 644 649 651 653 656 659 663 667 672 677 680 682 684 687 690 692 694 696 698 700 702 703 705 706 707 708 709 711 713 714 716 718 720 721 722 723 723 724 726 728 730 731 731 731 732 732 732 733 734 736 736
516 519 522 524 527 530 534 537 541 545 549 552 556 559 563 566 569 572 575 578 582 585 589 593 597 599 602 605 609 612 617 623 628 635 641 646 648 651 653 657 661 665 669 673 676 678 681 684 686 689 692 694 696 698 700 701 702 704 704 705 706 708 709 711 713 714 716 717 718 719 720 721 722 724 726 727 727 727 727 728 728 729 730 731 732
523 526 528 530 533 535 538 541 545 549 553 556 559 562 566 569 572 575 577 580 584 587 591 594 598 600 603 605 606 608 612 619 625 631 637 642 646 649 652 655 659 663 666 669 672 675 678 681 684 687 690 692 693 695 697 698 699 700 701 702 703 704 705 707 708 710 711 713 714 715 716 717 719 721 722 722 722 723 723 724 724 726 727 727 728
529 533 535 536 538 540 542 546 550 554 557 561 563 566 570 573 576 578 581 584 587 591 594 598 601 604 607 608 608 608 611 617 625 631 635 640 644 648 651 655 658 661 664 667 670 673 676 679 682 685 687 689 690 692 693 695 696 697 698 699 699 700 702 703 704 706 707 709 710 711 712 714 716 717 717 718 718 719 719 720 721 722 723 724 724
536 539 541 543 543 545 548 552 556 559 562 565 568 571 574 577 579 582 585 588 591 594 598 602 605 608 611 613 613 612 614 619 625 631 636 640 644 648 651 654 657 659 662 665 668 671 674 677 680 682 684 685 687 688 690 691 692 693 695 695 696 697 698 699 701 703 704 705 706 708 709 711 712 713 714 714 715 715 716 717 718 719 720 720 720
543 545 548 549 551 553 556 559 562 565 568 571 573 576 578 581 584 586 589 592 596 599 602 605 609 611 614 616 616 616 619 623 627 632 636 641 644 648 651 654 656 658 661 664 667 670 672 674 677 679 680 682 684 685 687 688 689 690 691 692 693 694 695 696 698 700 702 703 704 705 707 708 709 710 710 711 711 712 712 713 714 715 716 716 716
550 552 555 557 560 563 566 567 570 572 574 576 579 581 583 586 589 592 594 598 601 603 606 609 611 613 615 617 619 621 623 626 630 634 638 642 645 648 651 653 655 658 660 663 666 668 670 672 674 676 678 680 682 683 685 686 687 688 688 689 690 691 692 694 696 697 699 700 701 703 704 705 705 706 706 707 708 708 709 710 711 712 712 712 712
559 561 563 566 568 571 573 575 577 579 581 583 585 588 590 592 595 598 601 603 606 609 611 613 615 617 618 620 622 624 627 630 633 637 640 643 646 649 651 653 655 658 660 663 665 667 669 671 673 674 677 678 680 681 682 683 684 685 686 686 688 689 690 692 694 695 697 698 698 699 700 701 701 702 702 703 704 705 705 706 707 708 708 708 707
569 571 573 574 577 579 581 582 584 585 587 590 592 594 597 599 601 603 606 609 611 614 616 618 620 621 623 624 626 629 632 635 638 641 643 645 647 649 652 654 657 659 661 663 665 666 668 670 672 673 675 676 677 679 680 681 681 682 683 684 686 687 689 690 692 693 694 695 695 696 696 697 697 698 699 700 701 701 702 703 704 704 704 704 703
578 580 582 583 585 587 588 589 591 593 595 598 599 602 604 606 608 609 612 614 616 618 620 622 624 625 626 628 630 633 636 639 641 643 645 647 649 652 654 656 658 660 661 663 665 666 668 670 671 672 674 675 676 677 678 678 679 680 681 682 684 685 686 688 689 689 690 691 692 692 693 693 693 694 695 696 697 698 698 699 699 700 700 700 699
588 589 591 592 593 595 597 598 599 602 604 606 607 609 611 613 614 616 617 619 621 622 624 625 627 628 630 632 635 637 640 642 643 645 647 650 652 654 656 658 659 661 662 664 665 666 668 669 670 671 673 673 674 675 676 677 678 678 679 680 682 682 684 685 686 686 687 688 689 689 689 689 690 690 691 692 693 694 695 695 695 696 696 696 695
598 599 600 600 602 604 606 607 609 611 612 614 615 617 618 619 621 622 623 624 625 626 627 629 630 632 634 636 638 641 642 644 646 648 650 652 655 656 658 659 661 662 664 665 666 667 668 669 670 670 671 672 673 674 674 675 676 677 678 679 679 680 682 683 683 684 685 685 685 686 686 686 686 687 688 689 689 690 691 691 691 692 692 692 691
608 609 609 611 612 614 615 616 618 620 621 621 622 624 625 626 627 628 628 629 630 631 632 633 635 636 638 640 642 644 646 647 649 652 653 655 657 658 660 662 663 664 665 666 667 667 668 669 669 670 671 671 672 673 673 674 675 676 676 677 678 679 680 680 681 681 682 682 682 682 682 682 683 683 684 685 686 686 687 688 688 688 688 688 687
618 619 619 621 622 623 624 625 627 628 629 630 630 631 632 632 633 634 634 635 636 637 638 639 640 642 643 645 647 648 650 651 653 655 656 658 660 661 662 664 664 665 666 666 666 667 668 668 668 669 670 670 671 672 672 673 674 674 675 676 676 676 677 678 678 679 679 679 679 679 679 679 680 680 681 682 683 683 684 684 684 684 684 684 683